Hourly Weather Roundup
Issued by NWS Central Illinois

Home | Current Version | Previous Version | Text Only | Print | Product List | Glossary On
Versions: 1 2 3 4 5 6 7 8 9 10 11 12 13 14 15 16 17 18 19 20 21 22 23 24 25 26 27 28 29 30 31 32 33 34 35 36 37 38 39 40 41 42 43 44 45 46 47 48 49 50
000
NZUS43 KILX 072010
HWRILX

AREA WEATHER ROUNDUP
NATIONAL WEATHER SERVICE, LINCOLN IL
300 PM CDT TUE JUL 07 2015


CITY           SKY/WX    TMP DP  RH WIND       PRES   REMARKS
BLOOMINGTON    CLOUDY    71  60  68 NE14      30.03S
CHAMPAIGN      CLOUDY    65  60  84 N8        30.01R
DANVILLE       NOT AVBL
DECATUR        CLOUDY    66  60  81 N12       30.02S
EFFINGHAM      DRIZZLE   70  66  89 NW10      29.99R
FLORA          CLOUDY    80  71  75 W7        29.96S HX  83
GALESBURG      CLOUDY    71  58  64 N10       30.04R HAZE
JACKSONVILLE   NOT AVBL
LACON          NOT AVBL
LAWRENCEVILLE  LGT RAIN  78  73  84 SW14      29.95R HX  81
LITCHFIELD     CLOUDY    66  63  90 N13       30.01R
$$


CITY           SKY/WX    TMP DP  RH WIND       PRES   REMARKS
LINCOLN        NOT AVBL
MACOMB         PTSUNNY   73  60  65 N8        30.05S HAZE
MATTOON        CLOUDY    64  61  90 N15       29.99R
MT CARMEL AP   RAIN      79  73  83 SW8       29.96R HX  82
OLNEY-NOBLE AP LGT RAIN  77  72  83 W9        29.95S
PARIS          CLOUDY    65  63  92 N6        29.99R
PEORIA         PTSUNNY   72  60  66 NE6       30.03S
PONTIAC        PTSUNNY   71  59  65 NE13      30.03S
RANTOUL        CLOUDY    70  56  61 N18G24    30.01R
ROBINSON       LGT RAIN  74  73  95 W7        29.95S
SPRINGFIELD    CLOUDY    70  61  73 NE15      30.03R
TAYLORVILLE    CLOUDY    63  61  94 N12       30.02S FOG
$$

...REGIONAL REPORTS...


CITY           SKY/WX    TMP DP  RH WIND       PRES   REMARKS
CHICAGO O`HARE PTSUNNY   67  47  48 NE16G23   30.04R
KANKAKEE       PTSUNNY   67  52  57 N15G25    30.04R
MOLINE         PTSUNNY   73  56  54 N8        30.04R HAZE
MOUNT STERLING NOT AVBL
MOUNT VERNON   CLOUDY    79  70  73 SW8       29.97S HX  81
PITTSFIELD     CLOUDY    67  62  85 N7        30.04S HAZE
QUINCY         PTSUNNY   73  61  65 NE12      30.03F HAZE
ROCKFORD       CLOUDY    72  51  47 NE14      30.05S
$$


CITY           SKY/WX    TMP DP  RH WIND       PRES   REMARKS
BURLINGTON     MOSUNNY   74  59  59 N13       30.04S HAZE
CEDAR RAPIDS   PTSUNNY   71  54  54 N9        30.07S
DES MOINES     PTSUNNY   72  50  45 NE9G21    30.09F
KIRKSVILLE     PTSUNNY   73  58  59 N13       30.06S HAZE
OTTUMWA        PTSUNNY   72  56  57 N13       30.06S
ST LOUIS       CLOUDY    70  64  81 N9        30.00S
$$


CITY           SKY/WX    TMP DP  RH WIND       PRES   REMARKS
TERRE HAUTE    LGT RAIN  68  67  96 N9        29.96R FOG
EVANSVILLE     HVY RAIN  73  71  93 SW16      30.00R VSB 1/4
INDIANAPOLIS   HVY RAIN  72  68  87 E5        29.92S VSB 1
LAFAYETTE      CLOUDY    67  60  78 N12       29.98R
MADISON        PTSUNNY   67  51  56 N12G18    30.06S
MILWAUKEE      MOSUNNY   64  49  57 NE14G24   30.05R
$$





USA.gov is the U.S. government's official web portal to all federal, state and local government web resources and services.